User: anonymous   Login
Location: Sceptre
(50.8619°N, 109.2670°W)
Time: 14:58:23
(UTC+00:00)
Language:

XW-2C - Orbit

View from above orbital plane
View from above orbital plane
View from above satellite
View from above satellite

Ground track
Ground track

The orbit data is extracted from the following two-line orbital elements,

1 40906U 15049H   22183.42609229  .00002909  00000-0  14124-3 0  9993
2 40906  97.4919 186.7192 0012469 312.9196 184.7667 15.19206867375196
Epoch (UTC): 02 July 2022 10:13:34
Eccentricity: 0.0012469
inclination: 97.4919°
perigee height: 499 km
apogee height: 517 km
right ascension of ascending node: 186.7192°
argument of perigee: 312.9196°
revolutions per day: 15.19206867
mean anomaly at epoch: 184.7667°
orbit number at epoch: 37519

The dashed part of the orbit path shows where the satellite is in the earth's shadow,  

DLR